#datetime,building,power
2023-02-05T00:00:00,axn,30.99
2023-02-05T00:01:00,axn,30.82
2023-02-05T00:02:00,axn,31.07
2023-02-05T00:03:00,axn,30.85
2023-02-05T00:04:00,axn,30.86
2023-02-05T00:05:00,axn,30.91
2023-02-05T00:06:00,axn,30.83
2023-02-05T00:07:00,axn,29.98
2023-02-05T00:08:00,axn,30.13
2023-02-05T00:09:00,axn,30.04
2023-02-05T00:10:00,axn,30.18
2023-02-05T00:11:00,axn,30.14
2023-02-05T00:12:00,axn,30.20
2023-02-05T00:13:00,axn,30.82
2023-02-05T00:14:00,axn,30.18
2023-02-05T00:15:00,axn,30.25
2023-02-05T00:16:00,axn,30.44
2023-02-05T00:17:00,axn,34.83
2023-02-05T00:18:00,axn,30.65
2023-02-05T00:19:00,axn,30.28
2023-02-05T00:20:00,axn,30.49
2023-02-05T00:21:00,axn,30.53
2023-02-05T00:22:00,axn,30.62
2023-02-05T00:23:00,axn,30.44
2023-02-05T00:24:00,axn,30.37
2023-02-05T00:25:00,axn,30.34
2023-02-05T00:26:00,axn,30.20
2023-02-05T00:27:00,axn,30.15
2023-02-05T00:28:00,axn,33.10
2023-02-05T00:29:00,axn,33.08
2023-02-05T00:30:00,axn,30.23
2023-02-05T00:31:00,axn,30.01
2023-02-05T00:32:00,axn,30.02
2023-02-05T00:33:00,axn,30.16
2023-02-05T00:34:00,axn,30.30
2023-02-05T00:35:00,axn,30.12
2023-02-05T00:36:00,axn,30.52
2023-02-05T00:37:00,axn,30.52
2023-02-05T00:38:00,axn,30.41
2023-02-05T00:39:00,axn,30.45
2023-02-05T00:40:00,axn,30.28
2023-02-05T00:41:00,axn,30.16
2023-02-05T00:42:00,axn,30.16
2023-02-05T00:43:00,axn,30.53
2023-02-05T00:44:00,axn,29.95
2023-02-05T00:45:00,axn,30.04
2023-02-05T00:46:00,axn,30.23
2023-02-05T00:47:00,axn,30.35
2023-02-05T00:48:00,axn,30.70
2023-02-05T00:49:00,axn,30.51
2023-02-05T00:50:00,axn,30.25
2023-02-05T00:51:00,axn,30.31
2023-02-05T00:52:00,axn,30.12
2023-02-05T00:53:00,axn,30.47
2023-02-05T00:54:00,axn,30.57
2023-02-05T00:55:00,axn,30.44
2023-02-05T00:56:00,axn,30.44
2023-02-05T00:57:00,axn,30.90
2023-02-05T00:58:00,axn,30.49
2023-02-05T00:59:00,axn,30.62
2023-02-05T01:00:00,axn,30.27
2023-02-05T01:01:00,axn,30.68
2023-02-05T01:02:00,axn,31.24
2023-02-05T01:03:00,axn,30.87
2023-02-05T01:04:00,axn,31.07
2023-02-05T01:05:00,axn,31.24
2023-02-05T01:06:00,axn,31.25
2023-02-05T01:07:00,axn,31.26
2023-02-05T01:08:00,axn,30.73
2023-02-05T01:09:00,axn,30.80
2023-02-05T01:10:00,axn,30.86
2023-02-05T01:11:00,axn,30.53
2023-02-05T01:12:00,axn,30.46
2023-02-05T01:13:00,axn,30.85
2023-02-05T01:14:00,axn,30.74
2023-02-05T01:15:00,axn,30.82
2023-02-05T01:16:00,axn,31.06
2023-02-05T01:17:00,axn,31.24
2023-02-05T01:18:00,axn,30.83
2023-02-05T01:19:00,axn,30.38
2023-02-05T01:20:00,axn,30.19
2023-02-05T01:21:00,axn,30.23
2023-02-05T01:22:00,axn,30.06
2023-02-05T01:23:00,axn,30.27
2023-02-05T01:24:00,axn,30.23
2023-02-05T01:25:00,axn,30.40
2023-02-05T01:26:00,axn,30.47
2023-02-05T01:27:00,axn,30.46
2023-02-05T01:28:00,axn,30.33
2023-02-05T01:29:00,axn,30.75
2023-02-05T01:30:00,axn,31.23
2023-02-05T01:31:00,axn,30.91
2023-02-05T01:32:00,axn,30.70
2023-02-05T01:33:00,axn,30.46
2023-02-05T01:34:00,axn,30.61
2023-02-05T01:35:00,axn,30.69
2023-02-05T01:36:00,axn,30.56
2023-02-05T01:37:00,axn,31.94
2023-02-05T01:38:00,axn,33.79
2023-02-05T01:39:00,axn,33.78
2023-02-05T01:40:00,axn,31.09
2023-02-05T01:41:00,axn,31.46
2023-02-05T01:42:00,axn,31.04
2023-02-05T01:43:00,axn,30.98
2023-02-05T01:44:00,axn,31.00
2023-02-05T01:45:00,axn,30.94
2023-02-05T01:46:00,axn,30.98
2023-02-05T01:47:00,axn,30.83
2023-02-05T01:48:00,axn,30.98
2023-02-05T01:49:00,axn,31.19
2023-02-05T01:50:00,axn,31.14
2023-02-05T01:51:00,axn,41.70
2023-02-05T01:52:00,axn,41.79
2023-02-05T01:53:00,axn,42.14
2023-02-05T01:54:00,axn,42.00
2023-02-05T01:55:00,axn,31.23
2023-02-05T01:56:00,axn,31.37
2023-02-05T01:57:00,axn,31.27
2023-02-05T01:58:00,axn,31.24
2023-02-05T01:59:00,axn,30.74
2023-02-05T02:00:00,axn,30.74
2023-02-05T02:01:00,axn,30.76
2023-02-05T02:02:00,axn,30.88
2023-02-05T02:03:00,axn,31.20
2023-02-05T02:04:00,axn,30.94
2023-02-05T02:05:00,axn,30.92
2023-02-05T02:06:00,axn,30.52
2023-02-05T02:07:00,axn,30.48
2023-02-05T02:08:00,axn,30.52
2023-02-05T02:09:00,axn,30.91
2023-02-05T02:10:00,axn,31.30
2023-02-05T02:11:00,axn,30.84
2023-02-05T02:12:00,axn,30.77
2023-02-05T02:13:00,axn,30.71
2023-02-05T02:14:00,axn,31.02
2023-02-05T02:15:00,axn,30.61
2023-02-05T02:16:00,axn,30.52
2023-02-05T02:17:00,axn,31.05
2023-02-05T02:18:00,axn,30.48
2023-02-05T02:19:00,axn,30.43
2023-02-05T02:20:00,axn,31.15
2023-02-05T02:21:00,axn,31.13
2023-02-05T02:22:00,axn,30.74
2023-02-05T02:23:00,axn,30.71
2023-02-05T02:24:00,axn,30.43
2023-02-05T02:25:00,axn,30.75
2023-02-05T02:26:00,axn,30.90
2023-02-05T02:27:00,axn,30.76
2023-02-05T02:28:00,axn,30.58
2023-02-05T02:29:00,axn,31.01
2023-02-05T02:30:00,axn,30.82
2023-02-05T02:31:00,axn,30.86
2023-02-05T02:32:00,axn,30.54
2023-02-05T02:33:00,axn,30.70
2023-02-05T02:34:00,axn,31.15
2023-02-05T02:35:00,axn,45.47
2023-02-05T02:36:00,axn,44.87
2023-02-05T02:37:00,axn,44.56
2023-02-05T02:38:00,axn,44.48
2023-02-05T02:39:00,axn,44.37
2023-02-05T02:40:00,axn,30.08
2023-02-05T02:41:00,axn,30.55
2023-02-05T02:42:00,axn,30.36
2023-02-05T02:43:00,axn,29.88
2023-02-05T02:44:00,axn,29.98
2023-02-05T02:45:00,axn,30.10
2023-02-05T02:46:00,axn,30.28
2023-02-05T02:47:00,axn,30.38
2023-02-05T02:48:00,axn,30.07
2023-02-05T02:49:00,axn,30.39
2023-02-05T02:50:00,axn,30.26
2023-02-05T02:51:00,axn,30.29
2023-02-05T02:52:00,axn,30.07
2023-02-05T02:53:00,axn,30.66
2023-02-05T02:54:00,axn,30.56
2023-02-05T02:55:00,axn,30.33
2023-02-05T02:56:00,axn,30.19
2023-02-05T02:57:00,axn,29.90
2023-02-05T02:58:00,axn,29.92
2023-02-05T02:59:00,axn,29.90
2023-02-05T03:00:00,axn,29.87
2023-02-05T03:01:00,axn,29.87
2023-02-05T03:02:00,axn,34.47
2023-02-05T03:03:00,axn,34.52
2023-02-05T03:04:00,axn,34.56
2023-02-05T03:05:00,axn,34.44
2023-02-05T03:06:00,axn,30.06
2023-02-05T03:07:00,axn,30.10
2023-02-05T03:08:00,axn,29.89
2023-02-05T03:09:00,axn,29.67
2023-02-05T03:10:00,axn,29.45
2023-02-05T03:11:00,axn,29.71
2023-02-05T03:12:00,axn,29.83
2023-02-05T03:13:00,axn,29.92
2023-02-05T03:14:00,axn,30.43
2023-02-05T03:15:00,axn,30.29
2023-02-05T03:16:00,axn,30.50
2023-02-05T03:17:00,axn,30.56
2023-02-05T03:18:00,axn,30.31
2023-02-05T03:19:00,axn,33.23
2023-02-05T03:20:00,axn,33.02
2023-02-05T03:21:00,axn,30.55
2023-02-05T03:22:00,axn,30.75
2023-02-05T03:23:00,axn,30.65
2023-02-05T03:24:00,axn,30.57
2023-02-05T03:25:00,axn,30.60
2023-02-05T03:26:00,axn,30.26
2023-02-05T03:27:00,axn,29.99
2023-02-05T03:28:00,axn,30.26
2023-02-05T03:29:00,axn,29.97
2023-02-05T03:30:00,axn,29.86
2023-02-05T03:31:00,axn,29.86
2023-02-05T03:32:00,axn,29.69
2023-02-05T03:33:00,axn,29.93
2023-02-05T03:34:00,axn,29.94
2023-02-05T03:35:00,axn,29.84
2023-02-05T03:36:00,axn,37.93
2023-02-05T03:37:00,axn,38.24
2023-02-05T03:38:00,axn,39.16
2023-02-05T03:39:00,axn,38.90
2023-02-05T03:40:00,axn,38.62
2023-02-05T03:41:00,axn,38.32
2023-02-05T03:42:00,axn,38.54
2023-02-05T03:43:00,axn,38.61
2023-02-05T03:44:00,axn,39.01
2023-02-05T03:45:00,axn,38.41
2023-02-05T03:46:00,axn,38.34
2023-02-05T03:47:00,axn,38.74
2023-02-05T03:48:00,axn,38.30
2023-02-05T03:49:00,axn,38.10
2023-02-05T03:50:00,axn,38.11
2023-02-05T03:51:00,axn,38.04
2023-02-05T03:52:00,axn,29.58
2023-02-05T03:53:00,axn,29.64
2023-02-05T03:54:00,axn,29.65
2023-02-05T03:55:00,axn,30.10
2023-02-05T03:56:00,axn,30.14
2023-02-05T03:57:00,axn,30.11
2023-02-05T03:58:00,axn,29.97
2023-02-05T03:59:00,axn,29.85
2023-02-05T04:00:00,axn,29.82
2023-02-05T04:01:00,axn,30.07
2023-02-05T04:02:00,axn,29.69
2023-02-05T04:03:00,axn,29.60
2023-02-05T04:04:00,axn,29.87
2023-02-05T04:05:00,axn,29.46
2023-02-05T04:06:00,axn,29.58
2023-02-05T04:07:00,axn,29.87
2023-02-05T04:08:00,axn,29.97
2023-02-05T04:09:00,axn,29.99
2023-02-05T04:10:00,axn,29.74
2023-02-05T04:11:00,axn,29.95
2023-02-05T04:12:00,axn,29.95
2023-02-05T04:13:00,axn,29.56
2023-02-05T04:14:00,axn,29.45
2023-02-05T04:15:00,axn,29.29
2023-02-05T04:16:00,axn,26.21
2023-02-05T04:17:00,axn,25.01
2023-02-05T04:18:00,axn,25.58
2023-02-05T04:19:00,axn,25.35
2023-02-05T04:20:00,axn,25.84
2023-02-05T04:21:00,axn,25.37
2023-02-05T04:22:00,axn,25.27
2023-02-05T04:23:00,axn,25.38
2023-02-05T04:24:00,axn,28.13
2023-02-05T04:25:00,axn,27.96
2023-02-05T04:26:00,axn,27.94
2023-02-05T04:27:00,axn,25.36
2023-02-05T04:28:00,axn,25.19
2023-02-05T04:29:00,axn,25.65
2023-02-05T04:30:00,axn,25.46
2023-02-05T04:31:00,axn,25.36
2023-02-05T04:32:00,axn,25.46
2023-02-05T04:33:00,axn,25.34
2023-02-05T04:34:00,axn,25.15
2023-02-05T04:35:00,axn,24.82
2023-02-05T04:36:00,axn,24.94
2023-02-05T04:37:00,axn,24.91
2023-02-05T04:38:00,axn,24.98
2023-02-05T04:39:00,axn,25.46
2023-02-05T04:40:00,axn,25.32
2023-02-05T04:41:00,axn,25.49
2023-02-05T04:42:00,axn,25.33
2023-02-05T04:43:00,axn,24.95
2023-02-05T04:44:00,axn,24.89
2023-02-05T04:45:00,axn,24.69
2023-02-05T04:46:00,axn,24.87
2023-02-05T04:47:00,axn,25.17
2023-02-05T04:48:00,axn,25.14
2023-02-05T04:49:00,axn,25.10
2023-02-05T04:50:00,axn,24.86
2023-02-05T04:51:00,axn,24.85
2023-02-05T04:52:00,axn,25.12
2023-02-05T04:53:00,axn,24.82
2023-02-05T04:54:00,axn,24.78
2023-02-05T04:55:00,axn,25.08
2023-02-05T04:56:00,axn,25.13
2023-02-05T04:57:00,axn,24.72
2023-02-05T04:58:00,axn,25.03
2023-02-05T04:59:00,axn,24.79
2023-02-05T05:00:00,axn,24.49
2023-02-05T05:01:00,axn,24.09
2023-02-05T05:02:00,axn,24.18
2023-02-05T05:03:00,axn,24.36
2023-02-05T05:04:00,axn,24.38
2023-02-05T05:05:00,axn,24.33
2023-02-05T05:06:00,axn,24.42
2023-02-05T05:07:00,axn,24.90
2023-02-05T05:08:00,axn,24.71
2023-02-05T05:09:00,axn,24.83
2023-02-05T05:10:00,axn,24.85
2023-02-05T05:11:00,axn,24.81
2023-02-05T05:12:00,axn,24.50
2023-02-05T05:13:00,axn,24.70
2023-02-05T05:14:00,axn,24.39
2023-02-05T05:15:00,axn,25.15
2023-02-05T05:16:00,axn,24.21
2023-02-05T05:17:00,axn,24.00
2023-02-05T05:18:00,axn,24.08
2023-02-05T05:19:00,axn,24.12
2023-02-05T05:20:00,axn,23.71
2023-02-05T05:21:00,axn,23.75
2023-02-05T05:22:00,axn,24.09
2023-02-05T05:23:00,axn,23.86
2023-02-05T05:24:00,axn,24.15
2023-02-05T05:25:00,axn,24.68
2023-02-05T05:26:00,axn,24.60
2023-02-05T05:27:00,axn,24.06
2023-02-05T05:28:00,axn,24.03
2023-02-05T05:29:00,axn,24.31
2023-02-05T05:30:00,axn,24.21
2023-02-05T05:31:00,axn,24.50
2023-02-05T05:32:00,axn,24.09
2023-02-05T05:33:00,axn,23.89
2023-02-05T05:34:00,axn,24.05
2023-02-05T05:35:00,axn,24.16
2023-02-05T05:36:00,axn,24.18
2023-02-05T05:37:00,axn,23.92
2023-02-05T05:38:00,axn,23.95
2023-02-05T05:39:00,axn,23.96
2023-02-05T05:40:00,axn,24.26
2023-02-05T05:41:00,axn,24.38
2023-02-05T05:42:00,axn,23.88
2023-02-05T05:43:00,axn,23.98
2023-02-05T05:44:00,axn,24.23
2023-02-05T05:45:00,axn,24.24
2023-02-05T05:46:00,axn,24.27
2023-02-05T05:47:00,axn,24.19
2023-02-05T05:48:00,axn,24.20
2023-02-05T05:49:00,axn,30.10
2023-02-05T05:50:00,axn,30.59
2023-02-05T05:51:00,axn,30.42
2023-02-05T05:52:00,axn,24.51
2023-02-05T05:53:00,axn,24.14
2023-02-05T05:54:00,axn,23.94
2023-02-05T05:55:00,axn,24.54
2023-02-05T05:56:00,axn,24.21
2023-02-05T05:57:00,axn,24.22
2023-02-05T05:58:00,axn,24.27
2023-02-05T05:59:00,axn,24.17
2023-02-05T06:00:00,axn,24.09
2023-02-05T06:01:00,axn,24.43
2023-02-05T06:02:00,axn,24.42
2023-02-05T06:03:00,axn,24.37
2023-02-05T06:04:00,axn,24.18
2023-02-05T06:05:00,axn,24.21
2023-02-05T06:06:00,axn,24.37
2023-02-05T06:07:00,axn,24.08
2023-02-05T06:08:00,axn,34.28
2023-02-05T06:09:00,axn,34.54
2023-02-05T06:10:00,axn,34.22
2023-02-05T06:11:00,axn,34.28
2023-02-05T06:12:00,axn,23.96
2023-02-05T06:13:00,axn,24.09
2023-02-05T06:14:00,axn,23.93
2023-02-05T06:15:00,axn,23.83
2023-02-05T06:16:00,axn,24.43
2023-02-05T06:17:00,axn,24.38
2023-02-05T06:18:00,axn,24.20
2023-02-05T06:19:00,axn,23.53
2023-02-05T06:20:00,axn,24.05
2023-02-05T06:21:00,axn,23.62
2023-02-05T06:22:00,axn,23.78
2023-02-05T06:23:00,axn,23.88
2023-02-05T06:24:00,axn,26.76
2023-02-05T06:25:00,axn,26.27
2023-02-05T06:26:00,axn,23.41
2023-02-05T06:27:00,axn,23.25
2023-02-05T06:28:00,axn,23.17
2023-02-05T06:29:00,axn,23.51
2023-02-05T06:30:00,axn,23.46
2023-02-05T06:31:00,axn,23.37
2023-02-05T06:32:00,axn,23.40
2023-02-05T06:33:00,axn,23.35
2023-02-05T06:34:00,axn,23.26
2023-02-05T06:35:00,axn,23.42
2023-02-05T06:36:00,axn,23.43
2023-02-05T06:37:00,axn,23.67
2023-02-05T06:38:00,axn,23.48
2023-02-05T06:39:00,axn,23.24
2023-02-05T06:40:00,axn,23.05
2023-02-05T06:41:00,axn,23.29
2023-02-05T06:42:00,axn,23.30
2023-02-05T06:43:00,axn,23.32
2023-02-05T06:44:00,axn,23.34
2023-02-05T06:45:00,axn,23.33
2023-02-05T06:46:00,axn,23.84
2023-02-05T06:47:00,axn,23.79
2023-02-05T06:48:00,axn,23.50
2023-02-05T06:49:00,axn,23.14
2023-02-05T06:50:00,axn,22.83
2023-02-05T06:51:00,axn,23.32
2023-02-05T06:52:00,axn,23.32
2023-02-05T06:53:00,axn,24.39
2023-02-05T06:54:00,axn,24.03
2023-02-05T06:55:00,axn,23.20
2023-02-05T06:56:00,axn,22.90
2023-02-05T06:57:00,axn,22.86
2023-02-05T06:58:00,axn,26.03
2023-02-05T06:59:00,axn,28.07
2023-02-05T07:00:00,axn,28.49
2023-02-05T07:01:00,axn,31.44
2023-02-05T07:02:00,axn,31.15
2023-02-05T07:03:00,axn,31.46
2023-02-05T07:04:00,axn,31.65
2023-02-05T07:05:00,axn,31.56
2023-02-05T07:06:00,axn,31.98
2023-02-05T07:07:00,axn,31.91
2023-02-05T07:08:00,axn,31.88
2023-02-05T07:09:00,axn,31.96
2023-02-05T07:10:00,axn,31.84
2023-02-05T07:11:00,axn,32.16
2023-02-05T07:12:00,axn,32.53
2023-02-05T07:13:00,axn,32.35
2023-02-05T07:14:00,axn,34.84
2023-02-05T07:15:00,axn,35.24
2023-02-05T07:16:00,axn,34.72
2023-02-05T07:17:00,axn,31.79
2023-02-05T07:18:00,axn,32.55
2023-02-05T07:19:00,axn,32.16
2023-02-05T07:20:00,axn,32.02
2023-02-05T07:21:00,axn,32.21
2023-02-05T07:22:00,axn,32.57
2023-02-05T07:23:00,axn,32.87
2023-02-05T07:24:00,axn,33.63
2023-02-05T07:25:00,axn,32.65
2023-02-05T07:26:00,axn,32.59
2023-02-05T07:27:00,axn,32.55
2023-02-05T07:28:00,axn,32.60
2023-02-05T07:29:00,axn,32.37
2023-02-05T07:30:00,axn,32.48
2023-02-05T07:31:00,axn,32.22
2023-02-05T07:32:00,axn,33.25
2023-02-05T07:33:00,axn,32.42
2023-02-05T07:34:00,axn,32.32
2023-02-05T07:35:00,axn,32.60
2023-02-05T07:36:00,axn,32.75
2023-02-05T07:37:00,axn,32.03
2023-02-05T07:38:00,axn,31.91
2023-02-05T07:39:00,axn,31.81
2023-02-05T07:40:00,axn,31.60
2023-02-05T07:41:00,axn,31.62
2023-02-05T07:42:00,axn,31.57
2023-02-05T07:43:00,axn,32.62
2023-02-05T07:44:00,axn,33.30
2023-02-05T07:45:00,axn,32.47
2023-02-05T07:46:00,axn,32.36
2023-02-05T07:47:00,axn,32.83
2023-02-05T07:48:00,axn,33.42
2023-02-05T07:49:00,axn,33.12
2023-02-05T07:50:00,axn,32.63
2023-02-05T07:51:00,axn,32.48
2023-02-05T07:52:00,axn,33.21
2023-02-05T07:53:00,axn,32.27
2023-02-05T07:54:00,axn,32.15
2023-02-05T07:55:00,axn,33.31
2023-02-05T07:56:00,axn,32.36
2023-02-05T07:57:00,axn,32.30
2023-02-05T07:58:00,axn,32.13
2023-02-05T07:59:00,axn,32.11
2023-02-05T08:00:00,axn,32.04
2023-02-05T08:01:00,axn,32.35
2023-02-05T08:02:00,axn,31.93
2023-02-05T08:03:00,axn,31.79
2023-02-05T08:04:00,axn,31.84
2023-02-05T08:05:00,axn,32.15
2023-02-05T08:06:00,axn,31.85
2023-02-05T08:07:00,axn,31.73
2023-02-05T08:08:00,axn,31.42
2023-02-05T08:09:00,axn,32.24
2023-02-05T08:10:00,axn,31.89
2023-02-05T08:11:00,axn,31.74
2023-02-05T08:12:00,axn,31.47
2023-02-05T08:13:00,axn,31.74
2023-02-05T08:14:00,axn,31.75
2023-02-05T08:15:00,axn,31.39
2023-02-05T08:16:00,axn,31.33
2023-02-05T08:17:00,axn,31.17
2023-02-05T08:18:00,axn,31.29
2023-02-05T08:19:00,axn,31.38
2023-02-05T08:20:00,axn,31.32
2023-02-05T08:21:00,axn,31.32
2023-02-05T08:22:00,axn,31.32
2023-02-05T08:23:00,axn,31.62
2023-02-05T08:24:00,axn,31.58
2023-02-05T08:25:00,axn,31.86
2023-02-05T08:26:00,axn,32.04
2023-02-05T08:27:00,axn,31.51
2023-02-05T08:28:00,axn,31.34
2023-02-05T08:29:00,axn,46.07
2023-02-05T08:30:00,axn,45.91
2023-02-05T08:31:00,axn,45.88
2023-02-05T08:32:00,axn,46.24
2023-02-05T08:33:00,axn,45.60
2023-02-05T08:34:00,axn,31.82
2023-02-05T08:35:00,axn,31.94
2023-02-05T08:36:00,axn,31.79
2023-02-05T08:37:00,axn,31.92
2023-02-05T08:38:00,axn,31.82
2023-02-05T08:39:00,axn,31.71
2023-02-05T08:40:00,axn,31.71
2023-02-05T08:41:00,axn,32.07
2023-02-05T08:42:00,axn,31.74
2023-02-05T08:43:00,axn,31.57
2023-02-05T08:44:00,axn,32.72
2023-02-05T08:45:00,axn,32.57
2023-02-05T08:46:00,axn,32.21
2023-02-05T08:47:00,axn,32.17
2023-02-05T08:48:00,axn,32.30
2023-02-05T08:49:00,axn,32.02
2023-02-05T08:50:00,axn,31.94
2023-02-05T08:51:00,axn,31.95
2023-02-05T08:52:00,axn,31.43
2023-02-05T08:53:00,axn,31.53
2023-02-05T08:54:00,axn,31.56
2023-02-05T08:55:00,axn,31.83
2023-02-05T08:56:00,axn,31.79
2023-02-05T08:57:00,axn,31.87
2023-02-05T08:58:00,axn,32.27
2023-02-05T08:59:00,axn,32.11
2023-02-05T09:00:00,axn,31.79
2023-02-05T09:01:00,axn,31.84
2023-02-05T09:02:00,axn,31.78
2023-02-05T09:03:00,axn,31.63
2023-02-05T09:04:00,axn,31.11
2023-02-05T09:05:00,axn,31.36
2023-02-05T09:06:00,axn,31.49
2023-02-05T09:07:00,axn,31.12
2023-02-05T09:08:00,axn,31.31
2023-02-05T09:09:00,axn,31.02
2023-02-05T09:10:00,axn,31.20
2023-02-05T09:11:00,axn,31.25
2023-02-05T09:12:00,axn,31.15
2023-02-05T09:13:00,axn,31.18
2023-02-05T09:14:00,axn,31.33
2023-02-05T09:15:00,axn,30.96
2023-02-05T09:16:00,axn,31.35
2023-02-05T09:17:00,axn,33.57
2023-02-05T09:18:00,axn,30.41
2023-02-05T09:19:00,axn,30.62
2023-02-05T09:20:00,axn,30.56
2023-02-05T09:21:00,axn,30.72
2023-02-05T09:22:00,axn,30.82
2023-02-05T09:23:00,axn,31.36
2023-02-05T09:24:00,axn,31.95
2023-02-05T09:25:00,axn,31.29
2023-02-05T09:26:00,axn,30.80
2023-02-05T09:27:00,axn,30.74
2023-02-05T09:28:00,axn,30.79
2023-02-05T09:29:00,axn,31.06
2023-02-05T09:30:00,axn,31.21
2023-02-05T09:31:00,axn,30.94
2023-02-05T09:32:00,axn,30.97
2023-02-05T09:33:00,axn,30.98
2023-02-05T09:34:00,axn,31.04
2023-02-05T09:35:00,axn,31.08
2023-02-05T09:36:00,axn,31.03
2023-02-05T09:37:00,axn,31.05
2023-02-05T09:38:00,axn,30.97
2023-02-05T09:39:00,axn,31.14
2023-02-05T09:40:00,axn,30.63
2023-02-05T09:41:00,axn,30.63
2023-02-05T09:42:00,axn,30.66
2023-02-05T09:43:00,axn,31.59
2023-02-05T09:44:00,axn,31.19
2023-02-05T09:45:00,axn,31.77
2023-02-05T09:46:00,axn,30.87
2023-02-05T09:47:00,axn,30.77
2023-02-05T09:48:00,axn,30.86
2023-02-05T09:49:00,axn,31.17
2023-02-05T09:50:00,axn,31.13
2023-02-05T09:51:00,axn,31.35
2023-02-05T09:52:00,axn,31.08
2023-02-05T09:53:00,axn,30.86
2023-02-05T09:54:00,axn,30.65
2023-02-05T09:55:00,axn,30.58
2023-02-05T09:56:00,axn,30.65
2023-02-05T09:57:00,axn,30.35
2023-02-05T09:58:00,axn,30.45
2023-02-05T09:59:00,axn,30.10
2023-02-05T10:00:00,axn,30.36
2023-02-05T10:01:00,axn,30.46
2023-02-05T10:02:00,axn,30.40
2023-02-05T10:03:00,axn,30.71
2023-02-05T10:04:00,axn,31.85
2023-02-05T10:05:00,axn,31.50
2023-02-05T10:06:00,axn,31.14
2023-02-05T10:07:00,axn,31.10
2023-02-05T10:08:00,axn,30.89
2023-02-05T10:09:00,axn,30.65
2023-02-05T10:10:00,axn,33.72
2023-02-05T10:11:00,axn,34.02
2023-02-05T10:12:00,axn,33.64
2023-02-05T10:13:00,axn,30.94
2023-02-05T10:14:00,axn,31.61
2023-02-05T10:15:00,axn,30.95
2023-02-05T10:16:00,axn,32.21
2023-02-05T10:17:00,axn,33.09
2023-02-05T10:18:00,axn,32.41
2023-02-05T10:19:00,axn,32.59
2023-02-05T10:20:00,axn,42.64
2023-02-05T10:21:00,axn,42.55
2023-02-05T10:22:00,axn,42.33
2023-02-05T10:23:00,axn,42.35
2023-02-05T10:24:00,axn,41.74
2023-02-05T10:25:00,axn,31.97
2023-02-05T10:26:00,axn,31.58
2023-02-05T10:27:00,axn,31.57
2023-02-05T10:28:00,axn,31.56
2023-02-05T10:29:00,axn,31.15
2023-02-05T10:30:00,axn,31.36
2023-02-05T10:31:00,axn,36.90
2023-02-05T10:32:00,axn,31.29
2023-02-05T10:33:00,axn,31.23
2023-02-05T10:34:00,axn,31.27
2023-02-05T10:35:00,axn,31.15
2023-02-05T10:36:00,axn,31.17
2023-02-05T10:37:00,axn,31.17
2023-02-05T10:38:00,axn,31.15
2023-02-05T10:39:00,axn,30.93
2023-02-05T10:40:00,axn,31.18
2023-02-05T10:41:00,axn,31.16
2023-02-05T10:42:00,axn,31.39
2023-02-05T10:43:00,axn,31.29
2023-02-05T10:44:00,axn,31.34
2023-02-05T10:45:00,axn,31.24
2023-02-05T10:46:00,axn,31.35
2023-02-05T10:47:00,axn,31.00
2023-02-05T10:48:00,axn,31.00
2023-02-05T10:49:00,axn,31.18
2023-02-05T10:50:00,axn,31.21
2023-02-05T10:51:00,axn,31.14
2023-02-05T10:52:00,axn,31.09
2023-02-05T10:53:00,axn,31.50
2023-02-05T10:54:00,axn,31.01
2023-02-05T10:55:00,axn,31.14
2023-02-05T10:56:00,axn,31.12
2023-02-05T10:57:00,axn,31.10
2023-02-05T10:58:00,axn,31.41
2023-02-05T10:59:00,axn,35.93
2023-02-05T11:00:00,axn,36.01
2023-02-05T11:01:00,axn,35.87
2023-02-05T11:02:00,axn,35.74
2023-02-05T11:03:00,axn,31.45
2023-02-05T11:04:00,axn,31.28
2023-02-05T11:05:00,axn,31.34
2023-02-05T11:06:00,axn,31.55
2023-02-05T11:07:00,axn,31.58
2023-02-05T11:08:00,axn,31.54
2023-02-05T11:09:00,axn,31.34
2023-02-05T11:10:00,axn,31.15
2023-02-05T11:11:00,axn,31.35
2023-02-05T11:12:00,axn,31.49
2023-02-05T11:13:00,axn,31.23
2023-02-05T11:14:00,axn,31.49
2023-02-05T11:15:00,axn,31.51
2023-02-05T11:16:00,axn,31.75
2023-02-05T11:17:00,axn,31.30
2023-02-05T11:18:00,axn,31.12
2023-02-05T11:19:00,axn,31.22
2023-02-05T11:20:00,axn,31.46
2023-02-05T11:21:00,axn,31.50
2023-02-05T11:22:00,axn,31.74
2023-02-05T11:23:00,axn,31.62
2023-02-05T11:24:00,axn,31.50
2023-02-05T11:25:00,axn,31.62
2023-02-05T11:26:00,axn,31.91
2023-02-05T11:27:00,axn,31.50
2023-02-05T11:28:00,axn,31.18
2023-02-05T11:29:00,axn,31.34
2023-02-05T11:30:00,axn,31.24
2023-02-05T11:31:00,axn,31.10
2023-02-05T11:32:00,axn,31.12
2023-02-05T11:33:00,axn,31.30
2023-02-05T11:34:00,axn,30.89
2023-02-05T11:35:00,axn,31.24
2023-02-05T11:36:00,axn,31.57
2023-02-05T11:37:00,axn,31.85
2023-02-05T11:38:00,axn,31.17
2023-02-05T11:39:00,axn,31.30
2023-02-05T11:40:00,axn,31.18
2023-02-05T11:41:00,axn,34.13
2023-02-05T11:42:00,axn,34.22
2023-02-05T11:43:00,axn,31.14
2023-02-05T11:44:00,axn,31.56
2023-02-05T11:45:00,axn,31.61
2023-02-05T11:46:00,axn,31.61
2023-02-05T11:47:00,axn,31.68
2023-02-05T11:48:00,axn,31.66
2023-02-05T11:49:00,axn,31.90
2023-02-05T11:50:00,axn,31.53
2023-02-05T11:51:00,axn,31.82
2023-02-05T11:52:00,axn,32.12
2023-02-05T11:53:00,axn,31.77
2023-02-05T11:54:00,axn,31.67
2023-02-05T11:55:00,axn,31.52
2023-02-05T11:56:00,axn,31.38
2023-02-05T11:57:00,axn,31.25
2023-02-05T11:58:00,axn,31.39
2023-02-05T11:59:00,axn,31.28
2023-02-05T12:00:00,axn,31.30
2023-02-05T12:01:00,axn,31.62
2023-02-05T12:02:00,axn,31.40
2023-02-05T12:03:00,axn,31.64
2023-02-05T12:04:00,axn,31.49
2023-02-05T12:05:00,axn,31.88
2023-02-05T12:06:00,axn,31.35
2023-02-05T12:07:00,axn,31.43
2023-02-05T12:08:00,axn,31.64
2023-02-05T12:09:00,axn,31.98
2023-02-05T12:10:00,axn,31.85
2023-02-05T12:11:00,axn,32.25
2023-02-05T12:12:00,axn,32.48
2023-02-05T12:13:00,axn,32.00
2023-02-05T12:14:00,axn,32.65
2023-02-05T12:15:00,axn,32.21
2023-02-05T12:16:00,axn,31.94
2023-02-05T12:17:00,axn,31.83
2023-02-05T12:18:00,axn,31.86
2023-02-05T12:19:00,axn,31.84
2023-02-05T12:20:00,axn,31.73
2023-02-05T12:21:00,axn,31.71
2023-02-05T12:22:00,axn,32.05
2023-02-05T12:23:00,axn,31.79
2023-02-05T12:24:00,axn,32.34
2023-02-05T12:25:00,axn,31.49
2023-02-05T12:26:00,axn,31.29
2023-02-05T12:27:00,axn,30.99
2023-02-05T12:28:00,axn,30.94
2023-02-05T12:29:00,axn,30.91
2023-02-05T12:30:00,axn,30.99
2023-02-05T12:31:00,axn,31.07
2023-02-05T12:32:00,axn,30.92
2023-02-05T12:33:00,axn,30.82
2023-02-05T12:34:00,axn,30.93
2023-02-05T12:35:00,axn,30.97
2023-02-05T12:36:00,axn,31.01
2023-02-05T12:37:00,axn,30.97
2023-02-05T12:38:00,axn,30.64
2023-02-05T12:39:00,axn,30.85
2023-02-05T12:40:00,axn,30.60
2023-02-05T12:41:00,axn,30.92
2023-02-05T12:42:00,axn,30.94
2023-02-05T12:43:00,axn,31.27
2023-02-05T12:44:00,axn,31.07
2023-02-05T12:45:00,axn,30.98
2023-02-05T12:46:00,axn,31.10
2023-02-05T12:47:00,axn,31.00
2023-02-05T12:48:00,axn,31.24
2023-02-05T12:49:00,axn,31.58
2023-02-05T12:50:00,axn,31.78
2023-02-05T12:51:00,axn,32.01
2023-02-05T12:52:00,axn,31.69
2023-02-05T12:53:00,axn,31.91
2023-02-05T12:54:00,axn,31.83
2023-02-05T12:55:00,axn,31.67
2023-02-05T12:56:00,axn,31.68
2023-02-05T12:57:00,axn,31.83
2023-02-05T12:58:00,axn,31.83
2023-02-05T12:59:00,axn,31.90
2023-02-05T13:00:00,axn,32.31
2023-02-05T13:01:00,axn,32.69
2023-02-05T13:02:00,axn,32.99
2023-02-05T13:03:00,axn,32.53
2023-02-05T13:04:00,axn,32.35
2023-02-05T13:05:00,axn,32.40
2023-02-05T13:06:00,axn,32.39
2023-02-05T13:07:00,axn,35.93
2023-02-05T13:08:00,axn,35.67
2023-02-05T13:09:00,axn,35.77
2023-02-05T13:10:00,axn,33.28
2023-02-05T13:11:00,axn,33.54
2023-02-05T13:12:00,axn,33.57
2023-02-05T13:13:00,axn,33.77
2023-02-05T13:14:00,axn,33.09
2023-02-05T13:15:00,axn,33.06
2023-02-05T13:16:00,axn,32.82
2023-02-05T13:17:00,axn,32.80
2023-02-05T13:18:00,axn,32.89